ZHONGXING-2A

Last updated on Fri Nov 07 2025 00:02:49 GMT+0000 (Coordinated Universal Time)

1 38352U 12028A 25310.26760506 -.00000283 00000+0 00000+0 0 9999 2 38352 0.8742 86.9820 0001692 158.1714 355.2042 1.00269401 49065
UTC large
Height (km)
Speed (km/s)
/
Latitude / Longitude
Inclination (degrees)
Orbital Period (minutes)
Azimuth
Elevation
Range (km)
Doppler Factor

Next 0 passes for location: London (51.5072 / 0.1276)

Sorry there are no passes over London.